Regional Weather Roundup
Issued by NWS

Home | Current Version | Previous Version | Text Only | Print | Product List | Glossary Off
Versions: 1 2 3 4 5 6 7 8 9 10 11 12 13 14 15 16 17 18 19 20 21 22 23 24 25 26 27 28 29 30 31 32 33 34 35 36 37 38 39 40 41 42 43 44 45 46 47 48 49 50

000
ASUS45 KCYS 212310
RWRWY

WYOMING REGIONAL WEATHER ROUNDUP
NATIONAL WEATHER SERVICE CHEYENNE WY
500 PM MDT MON JUL 21 2014

NOTE:  "FAIR" INDICATES FEW OR NO CLOUDS BELOW 12,000 FEET
WITH NO SIGNIFICANT WEATHER AND/OR OBSTRUCTIONS TO VISIBILITY.

WYZ001-220000-
YELLOWSTONE NATIONAL PARK

CITY           SKY/WX    TMP DP  RH WIND       PRES   REMARKS
LK YELLOWSTONE   N/A     69  37  30 SW8G22    30.29S
W YELLOWSTONE  NOT AVBL

$$
WYZ002>013-054>058-071-098>099-220000-
NORTHERN WYOMING

CITY           SKY/WX    TMP DP  RH WIND       PRES   REMARKS
JACKSON        PTSUNNY   57  52  82 S30G40    30.32R
CODY           PTSUNNY   84  43  23 W10G17    30.04R
GREYBULL       MOSUNNY   93  43  17 N12G17    29.94R
WORLAND        PTSUNNY   89  44  20 NE3       29.94R
SHERIDAN       MOSUNNY   84  56  38 NE9       29.99F
BUFFALO        MOSUNNY   80  51  36 N18G24    30.05F
GILLETTE       MOSUNNY   85  48  27 N20G32    29.96R
HULETT         LGT RAIN  79  55  44 MISG      29.98
NEWCASTLE      FAIR      97  34  11 W17G24    29.95  HX  91

$$
WYZ014>020-022>026-101>103-220000-
CENTRAL WYOMING

CITY           SKY/WX    TMP DP  RH WIND       PRES   REMARKS
BIG PINEY      MOSUNNY   83  36  18 NW16      30.24F
PINEDALE       MOCLDY    77  34  20 W9        30.26R
DUBOIS         FAIR      73  34  23 N16G28    30.24F
LANDER         MOSUNNY   90  38  16 SW15G21   30.06F
RIVERTON       MOSUNNY   90  34  13 W9G20     30.06F
CASPER         MOSUNNY   94  29  10 SW18G35   30.05S
DOUGLAS        SUNNY     95  33  11 W21G31    30.03F HX  90

$$
WYZ021-027>030-104>119-220000-
SOUTHERN WYOMING

CITY           SKY/WX    TMP DP  RH WIND       PRES   REMARKS
EVANSTON       SUNNY     83  37  19 SW20G26   30.26F
KEMMERER       CLEAR     81  30  16 S14G23    30.28S
FORT BRIDGER   FAIR      85  29  13 W21G33    30.27F
ROCK SPRINGS   SUNNY     87  29  12 W17G25    30.21F
DIXON          FAIR      91  27   9 W18G24    30.23F
RAWLINS        MOSUNNY   84  28  13 W16       30.22S
SARATOGA       FAIR      88  27  11 W21G32    30.26S
LARAMIE        MOSUNNY   85  37  18 W15       30.26F
CHEYENNE       MOSUNNY   85  43  22 SW16G26   30.18R
TORRINGTON     PTSUNNY   92  47  21 SW8       29.97F
PINE BLUFFS    FAIR      91  41  17 N9        30.10R

$$



USA.gov is the U.S. government's official web portal to all federal, state and local government web resources and services.